Tracking 31027 objects as of 19-Jul-2025
HD Live streaming from Space Station
objects crossing your sky now

OBJECT F

Track OBJECT F now!
10-day predictions


NORAD ID: 57171
Int'l Code: 2023-091F
Perigee: 511.5 km
Apogee: 528.8 km
Inclination: 97.6 °
Period: 94.9 minutes
Semi major axis: 6891 km
RCS: Unknown
Launch date: June 27, 2023
Source: (TBD)
Launch site: VOSTOCHNY COSMODROME (VOSTO)
Your satellite tracking list
FENGYUN 1C DEB
Track 1 satellite(s)




NASA's NSSDC Master Catalog

Two Line Element Set (TLE):
1 57171U 23091F   25199.90102754  .00006207  00000-0  31131-3 0  9997
2 57171  97.5598 256.3989 0012594 187.5415 172.5630 15.17630379113506
Source of the keplerian elements: AFSPC